logo tempoitalia

Diretta Meteo Ha Noi, Vietnamlunedì 31 agosto ore 12:00

Mappa
Sereno 34 °C Sereno 24 Ore: T.min 28 T.max 36
Ponente Ovest/Nord-Ovest Km/h 18.5 Punto di rugiada: 25 °C Umidità: 59% Visibilità: 10 Km
Il sole sorge alle: 05:40 Il sole tramonta alle: 18:14
31 Agosto 2026 12:00 tempo osservato: Sereno Sereno 34 59 1002 vento: Nord O/NO 18.5
31 Agosto 2026 11:30 tempo osservato: Sereno Sereno 34 56 1003 vento: Nord NO 14.8
31 Agosto 2026 11:00 tempo osservato: Sereno Sereno 34 59 1003 vento: Nord NO 14.8
31 Agosto 2026 10:30 tempo osservato: Sereno Sereno 33 62 1003 vento: Nord NO 16.7
31 Agosto 2026 10:00 tempo osservato: Sereno Sereno 32 66 1003 vento: Nord O/NO 16.7
31 Agosto 2026 09:30 tempo osservato: Sereno Sereno 32 70 1003 vento: Nord NO 16.7
31 Agosto 2026 09:00 tempo osservato: Sereno Sereno 30 79 1004 vento: Nord NO 9.3
31 Agosto 2026 08:30 tempo osservato: Sereno Sereno 29 79 1004 vento: Nord O/NO 9.3
31 Agosto 2026 08:00 tempo osservato: Sereno Sereno 29 79 1003 vento: Nord O/NO 11.1
31 Agosto 2026 07:30 tempo osservato: Sereno Sereno 29 79 1003 vento: Nord O/NO 9.3
31 Agosto 2026 07:00 tempo osservato: Sereno Sereno 29 79 1002 vento: Nord O/NO 11.1
31 Agosto 2026 06:30 tempo osservato: Sereno Sereno 29 79 1002 vento: Nord NO 7.4
31 Agosto 2026 06:00 tempo osservato: Sereno Sereno 28 83 1002 vento: Nord O/NO 11.1
31 Agosto 2026 05:30 tempo osservato: Sereno Sereno 28 88 1001 vento: Nord O/NO 9.3
31 Agosto 2026 05:00 tempo osservato: Sereno Sereno 29 83 1001 vento: Nord O 14.8
31 Agosto 2026 04:30 tempo osservato: Sereno Sereno 29 89 1001 vento: Nord O/NO 9.3
31 Agosto 2026 04:00 tempo osservato: Sereno Sereno 29 89 1000 vento: Nord O 13
31 Agosto 2026 03:30 tempo osservato: Sereno Sereno 29 89 1000 vento: Nord NO 9.3
31 Agosto 2026 03:00 tempo osservato: Sereno Sereno 29 89 1000 vento: Nord N 5.5
31 Agosto 2026 02:30 tempo osservato: Sereno Sereno 29 89 1001 vento: Nord N 3.7
31 Agosto 2026 02:00 tempo osservato: Sereno Sereno 29 89 1001 vento: Nord NO 9.3
31 Agosto 2026 01:30 tempo osservato: Sereno Sereno 29 89 1000 vento: Nord N 3.7
31 Agosto 2026 01:00 tempo osservato: Sereno Sereno 29 89 1001 vento: Nord N 3.7
31 Agosto 2026 00:30 tempo osservato: Sereno Sereno 30 89 1001 vento: Nord N 5.5
31 Agosto 2026 00:00 tempo osservato: Sereno Sereno 30 89 1002 vento: Nord N 5.5
30 Agosto 2026 23:30 tempo osservato: Sereno Sereno 30 89 1002 vento: Nord N 0
30 Agosto 2026 23:00 tempo osservato: Sereno Sereno 30 89 1002 vento: Nord N 5.5
30 Agosto 2026 22:30 tempo osservato: Pioggia Pioggia 30 89 1002 vento: Nord N 3.7
30 Agosto 2026 22:00 tempo osservato: Sereno Sereno 30 89 1002 vento: Nord N 5.5
30 Agosto 2026 21:30 tempo osservato: Sereno Sereno 30 89 1002 vento: Nord N 3.7
30 Agosto 2026 21:00 tempo osservato: Sereno Sereno 31 79 1001 vento: Nord N 5.5
30 Agosto 2026 20:30 tempo osservato: Sereno Sereno 31 74 1001 vento: Nord O/NO 7.4
30 Agosto 2026 20:00 tempo osservato: Sereno Sereno 32 70 1001 vento: Nord N 5.5
30 Agosto 2026 19:30 tempo osservato: Sereno Sereno 32 74 1000 vento: Nord N 5.5
30 Agosto 2026 19:00 tempo osservato: Sereno Sereno 31 79 1000 vento: Nord N 5.5
30 Agosto 2026 18:30 tempo osservato: Sereno Sereno 32 74 1000 vento: Nord N 5.5
30 Agosto 2026 18:00 tempo osservato: Sereno Sereno 32 74 999 vento: Nord N/NO 7.4
30 Agosto 2026 17:30 tempo osservato: Sereno Sereno 33 70 999 vento: Nord NO 7.4
30 Agosto 2026 17:00 tempo osservato: Sereno Sereno 33 66 999 vento: Nord O 7.4
30 Agosto 2026 16:30 tempo osservato: Sereno Sereno 33 66 1000 vento: Nord NO 7.4
30 Agosto 2026 16:00 tempo osservato: Sereno Sereno 33 62 1000 vento: Nord N/NO 7.4
30 Agosto 2026 15:30 tempo osservato: Sereno Sereno 33 62 1000 vento: Nord N 3.7
30 Agosto 2026 15:00 tempo osservato: Sereno Sereno 32 66 1000 vento: Nord NO 9.3
30 Agosto 2026 14:30 tempo osservato: Coperto Coperto 31 70 1001 vento: Nord O/NO 16.7
30 Agosto 2026 14:00 tempo osservato: Molto Nuvoloso Molto Nuvoloso 32 70 1001 vento: Nord N 14.8
30 Agosto 2026 13:30 tempo osservato: Molto Nuvoloso Molto Nuvoloso 34 63 1001 vento: Nord N/NO 11.1
30 Agosto 2026 13:00 tempo osservato: Sereno Sereno 36 60 1001 vento: Nord O/NO 14.8